RS-39
1 38051U 11062C   12341.65166994  .00008093  00000-0  30606-3 0  9576
2 38051 051.6352 056.0879 0012282 293.6422 218.4234 15.27773538 48306
E-STAR
1 38079U 12006C   12341.27781636  .00050257  00000-0  11683-2 0  6916
2 38079 069.4845 278.7261 0684235 028.3430 335.3198 14.28607470 42036
GOLIAT
1 38085U 12006J   12341.26601464  .00046014  00000-0  10604-2 0  6673
2 38085 069.4825 279.7135 0691662 028.9470 334.8263 14.27220160 42004
HORYU-2
1 38340U 12025D   12340.88100522  .00000883  00000-0  15400-3 0  2731
2 38340 098.1953 281.1883 0013407 141.9395 218.2776 14.70452861 29702
RS-40
1 38736U 12041D   12341.68445702  .00000010  00000-0  00000 0 0  1264
2 38736 082.4779 275.1512 0019936 030.9562 329.2689 12.42648271 16331
PROITERES
1 38756U 12047B   12341.54423935  .00000404  00000-0  69534-4 0  2957
2 38756 098.2760 048.8840 0012801 005.6000 354.5349 14.74002037 13014
AENEAS
1 38760U 0        12339.81715136 -.00001995  00000-0 -15917-3 0 00043
2 38760 064.6566 149.5600 0217100 267.9065 089.7478 14.79727591000184
CSSWE-D
1 38761U 0        12340.22241455  .00001629  00000-0  16086-3 0 00050
2 38761 064.6705 148.3309 0218659 266.5967 091.0107 14.79611665000267
CXBN-E
1 38762U 0        12339.94797608  .00001911  00000-0  18534-3 0 00047
2 38762 064.6726 149.1476 0218367 266.4636 091.1508 14.79725535000294
OBJECT F
1 38763U 0        12339.94931602  .00001440  00000-0  14400-3 0 00047
2 38763 064.6710 149.1435 0218896 266.7609 090.8400 14.79641686000238
CINEMA-G
1 38764U 0        12339.88054846  .00001554  00000-0  15390-3 0 00042
2 38764 064.6699 149.3424 0218731 266.7677 090.8397 14.79679288000186
CP5
1 38765U 0        12339.94401684  .00002050  00000-0  19763-3 0 00046
2 38765 064.6704 149.1133 0217718 266.4723 091.1538 14.79809819000199
RAIKO
1 38852U 98067CN  12341.22106303  .00026178  00000-0  37488-3 0   688
2 38852 051.6604 345.8729 0017850 006.9381 353.1856 15.55823492  9662
FITSAT 1
1 38853U 98067CP  12341.20386805  .00031294  00000-0  43283-3 0   656
2 38853 051.6494 345.7569 0016211 018.3948 341.7557 15.56694866  9716
TechEdSat
1 38854U 98067CQ  12341.23195451  .00044329  00000-0  56787-3 0   718
2 38854 051.6477 345.1927 0016464 022.3752 337.7953 15.58567952  9721
F 1
1 38855U 98067CR  12341.23652595  .00042518  00000-0  54940-3 0   746
2 38855 051.6498 345.2212 0016180 021.2825 338.8811 15.58363567  9616
WeWish
1 38856U 98067CS  12341.23296729  .00075333  00000-0  82927-3 0   826
2 38856 051.6460 344.4452 0019401 017.7350 342.4311 15.62230922  9625
